TimeEDT,TemperatureF,Dew PointF,Humidity,Sea Level PressureIn,VisibilityMPH,Wind Direction,Wind SpeedMPH,Gust SpeedMPH,PrecipitationIn,Events,Conditions,WindDirDegrees,DateUTC
12:53 AM,84.0,73.9,72,30.06,10.0,ESE,3.5,-,N/A,,Scattered Clouds,120,2013-06-16 04:53:00
1:53 AM,84.0,72.0,67,30.05,10.0,East,3.5,-,N/A,,Clear,80,2013-06-16 05:53:00
2:53 AM,82.9,71.1,67,30.03,10.0,East,4.6,-,N/A,,Clear,100,2013-06-16 06:53:00
3:53 AM,82.0,72.0,71,30.01,10.0,Calm,Calm,-,N/A,,Clear,0,2013-06-16 07:53:00
4:53 AM,82.0,72.0,71,30.01,10.0,Calm,Calm,-,N/A,,Clear,0,2013-06-16 08:53:00
5:53 AM,81.0,72.0,74,30.02,10.0,Calm,Calm,-,N/A,,Clear,0,2013-06-16 09:53:00
6:53 AM,82.0,72.0,71,30.03,10.0,ENE,3.5,-,N/A,,Clear,70,2013-06-16 10:53:00
7:53 AM,84.9,73.0,67,30.04,10.0,East,4.6,-,N/A,,Clear,90,2013-06-16 11:53:00
8:53 AM,86.0,73.0,65,30.06,10.0,East,5.8,-,N/A,,Partly Cloudy,90,2013-06-16 12:53:00
9:53 AM,88.0,73.0,61,30.06,10.0,East,8.1,-,N/A,,Partly Cloudy,90,2013-06-16 13:53:00
10:53 AM,89.1,72.0,57,30.07,10.0,East,8.1,-,N/A,,Clear,80,2013-06-16 14:53:00
11:53 AM,90.0,72.0,55,30.08,10.0,East,11.5,-,N/A,,Clear,90,2013-06-16 15:53:00
12:53 PM,90.0,73.0,57,30.07,10.0,East,10.4,18.4,N/A,,Clear,100,2013-06-16 16:53:00
1:53 PM,90.0,73.9,59,30.07,10.0,ESE,8.1,-,N/A,,Mostly Cloudy,110,2013-06-16 17:53:00
2:03 PM,89.6,75.2,62,30.07,10.0,Variable,6.9,-,N/A,,Mostly Cloudy,0,2013-06-16 18:03:00
2:11 PM,91.4,75.2,59,30.07,10.0,ESE,6.9,-,N/A,,Scattered Clouds,110,2013-06-16 18:11:00
2:53 PM,91.0,73.9,57,30.06,10.0,East,6.9,-,N/A,,Clear,100,2013-06-16 18:53:00
3:53 PM,90.0,73.0,57,30.03,10.0,East,9.2,-,N/A,,Clear,90,2013-06-16 19:53:00
4:53 PM,90.0,73.0,57,30.01,10.0,East,8.1,-,N/A,,Clear,90,2013-06-16 20:53:00
5:53 PM,89.1,73.0,59,30.02,10.0,ESE,6.9,-,N/A,,Clear,110,2013-06-16 21:53:00
6:53 PM,88.0,73.0,61,30.04,10.0,ESE,9.2,-,N/A,,Clear,110,2013-06-16 22:53:00
7:53 PM,86.0,73.0,65,30.04,10.0,East,10.4,-,N/A,,Partly Cloudy,90,2013-06-16 23:53:00
8:53 PM,86.0,72.0,63,30.06,10.0,ESE,8.1,-,N/A,,Clear,120,2013-06-17 00:53:00
9:53 PM,84.9,73.0,67,30.06,10.0,ESE,9.2,-,N/A,,Partly Cloudy,120,2013-06-17 01:53:00
10:53 PM,84.9,73.9,69,30.06,10.0,ESE,9.2,-,N/A,,Partly Cloudy,110,2013-06-17 02:53:00
11:53 PM,84.9,73.9,69,30.08,10.0,ESE,5.8,-,N/A,,Clear,110,2013-06-17 03:53:00